          12 16  02 33.96  +08 57.9   1.492  2.282    27.1 / 331  13.5  108  .04

          13 16  02 33.08  +09 21.7   1.477  2.277    27.8 / 330  13.4  121  .01

          14 16  02 32.16  +09 45.9   1.462  2.271    28.5 / 329  13.4  134  .00

          15 16  02 31.18  +10 10.4   1.448  2.266    29.2 / 329  13.4  147  .01

          16 16  02 30.14  +10 35.3   1.434  2.261    29.9 / 328  13.3  161  .05

          17 16  02 29.06  +11 00.5   1.420  2.257    30.6 / 327  13.3  174  .11

          18 16  02 27.91  +11 26.1   1.406  2.252    31.4 / 326  13.3  170  .18

          19 16  02 26.72  +11 52.1   1.392  2.247    32.1 / 325  13.2  157  .28

          20 16  02 25.47  +12 18.5   1.379  2.242    32.9 / 324  13.2  143  .39

          21 16  02 24.16  +12 45.2   1.366  2.237    33.6 / 324  13.2  129  .50

          22 16  02 22.79  +13 12.2   1.353  2.233    34.4 / 323  13.1  114  .61

          23 16  02 21.37  +13 39.7   1.341  2.228    35.2 / 322  13.1  100  .72

          24 16  02 19.89  +14 07.4   1.329  2.223    35.9 / 321  13.1   86  .82

          25 16  02 18.34  +14 35.5   1.317  2.219    36.7 / 321  13.1   71  .90

          26 16  02 16.74  +15 03.9   1.306  2.214    37.4 / 320  13.0   57  .96

          27 16  02 15.08  +15 32.7   1.295  2.210    38.2 / 320  13.0   43  .99

          28 16  02 13.37  +16 01.7   1.284  2.205    38.9 / 319  13.0   30 1.00

          29 16  02 11.58  +16 31.0   1.274  2.201    39.6 / 318  13.0   16  .99

          30 16  02 09.74  +17 00.5   1.264  2.197    40.4 / 318  12.9    4  .95

     Oct.  1 16  02 07.84  +17 30.3   1.255  2.192    41.1 / 317  12.9   11  .90

           2 16  02 05.88  +18 00.3   1.245  2.188    41.7 / 316  12.9   23  .83

           3 16  02 03.86  +18 30.5   1.237  2.184    42.4 / 316  12.9   35  .75

           4 16  02 01.78  +19 00.9   1.228  2.180    43.0 / 315  12.8   47  .66

           5 16  01 59.64  +19 31.4   1.220  2.176    43.6 / 315  12.8   60  .57

           6 16  01 57.44  +20 02.1   1.213  2.172    44.2 / 314  12.8   72  .48

           7 16  01 55.19  +20 32.8   1.205  2.168    44.7 / 314  12.8   84  .38

           8 16  01 52.87  +21 03.6   1.198  2.164    45.2 / 313  12.7   96  .29

           9 16  01 50.51  +21 34.4   1.192  2.160    45.7 / 313  12.7  108  .21

          10 16  01 48.09  +22 05.2   1.186  2.157    46.1 / 312  12.7  121  .13

          11 16  01 45.61  +22 36.0   1.181  2.153    46.5 / 311  12.7  133  .07

          12 16  01 43.09  +23 06.7   1.176  2.149    46.8 / 311  12.7  146  .03

          13 16  01 40.52  +23 37.3   1.171  2.146    47.1 / 310  12.7  158  .00

          14 16  01 37.90  +24 07.7   1.167  2.142    47.3 / 310  12.6  166  .00

          15 16  01 35.24  +24 38.0   1.163  2.139    47.5 / 309  12.6  163  .03

          16 16  01 32.54  +25 08.0   1.160  2.135    47.6 / 309  12.6  151  .08

          17 16  01 29.80  +25 37.9   1.157  2.132    47.7 / 308  12.6  138  .16

          18 16  01 27.03  +26 07.4   1.154  2.129    47.7 / 308  12.6  124  .25

          19 16  01 24.22  +26 36.6   1.152  2.125    47.7 / 307  12.6  110  .36

          20 16  01 21.39  +27 05.5   1.151  2.122    47.6 / 307  12.6   96  .47

          21 16  01 18.53  +27 34.0   1.150  2.119    47.5 / 306  12.6   82  .59

          22 16  01 15.65  +28 02.1   1.149  2.116    47.3 / 306  12.6   69  .69

          23 16  01 12.75  +28 29.8   1.149  2.113    47.0 / 306  12.6   56  .79

          24 16  01 09.83  +28 57.0   1.149  2.110    46.7 / 305  12.5   44  .87

          25 16  01 06.91  +29 23.8   1.150  2.107    46.4 / 305  12.5   33  .93

          26 16  01 03.98  +29 50.0   1.151  2.105    46.0 / 304  12.5   25  .98

          27 16  01 01.04  +30 15.8   1.152  2.102    45.5 / 304  12.5   22 1.00

          28 16  00 58.11  +30 41.0   1.154  2.099    45.0 / 303  12.5   27 1.00

          29 16  00 55.18  +31 05.6   1.156  2.096    44.5 / 303  12.5   35  .98

          30 16  00 52.26  +31 29.7   1.159  2.094    43.9 / 303  12.5   45  .94

          31 16  00 49.35  +31 53.2   1.162  2.091    43.3 / 302  12.5   56  .88

     Nov.  1 16  00 46.46  +32 16.1   1.166  2.089    42.7 / 302  12.5   67  .81

NAKANO

         **** Don't distribute anyone except personal use only ****

                (C) Copyright 2004 OAA/ComputingSection

write mail from CFAD0::NAKANO on 2004-09-13 05:21:42(JST).

 

*** Not sure the comet is a long periodic or not ***



    C/2004 Q1 (Tucker)                                                    

T 2004 Dec. 7.50829 TT                                  Nakano

q   2.0379455            (2000.0)            P               Q

z  +0.0112659      Peri.   33.35039     +0.65871917     -0.68482047

 +/-0.0010637      Node    22.06941     +0.36773149     -0.06830303

e   0.9770408      Incl.   56.03570     +0.65640126     +0.72550370

From 103 observations 2004 Aug. 22-31.



NAKANO

         **** Don't distribute anyone except personal use only ****

                (C) Copyright 2004 OAA/ComputingSection

write mail from CFAD0::NAKANO on 2004-09-05 02:52:38(JST).

 



◎C/2004 Q1の軌道と予報位置です



  上尾の門田健一氏から8月31日の観測が報告されました.氏の CCD全光度は

13.8等でした.



    C/2004 Q1 (Tucker)                                                    

T 2004 Dec. 7.53620 TT                                  Nakano

q   2.0411224            (2000.0)            P               Q

                   Peri.   33.44546     +0.65765978     -0.68510712

                   Node    22.12713     +0.36620491     -0.07260564

e   1.0            Incl.   56.26215     +0.65831419     +0.72481491

From 98 observations 2004 Aug. 22-31.

 

Date/        TT  R.A.(2000) Decl.     Delta   r     Daily motion  Mag.  Moon Age

              h    h  m       。  ,                      ,  / PA 。  m1      。

2004 Aug. 31 18  02 40.85  +04 41.5   1.690  2.349    20.4 / 345  13.8   40  .96

     Sept. 1 18  02 40.51  +05 01.3   1.673  2.343    20.9 / 344  13.8   27  .91

           2 18  02 40.12  +05 21.3   1.656  2.338    21.3 / 343  13.8   16  .85

           3 18  02 39.70  +05 41.7   1.639  2.332    21.8 / 341  13.7   10  .77

           4 18  02 39.23  +06 02.4   1.622  2.326    22.3 / 340  13.7   16  .68

           5 18  02 38.72  +06 23.4   1.605  2.321    22.9 / 339  13.7   27  .58

           6 18  02 38.17  +06 44.7   1.588  2.315    23.4 / 338  13.7   38  .49

           7 18  02 37.57  +07 06.4   1.572  2.310    24.0 / 337  13.6   50  .40

           8 18  02 36.93  +07 28.5   1.556  2.304    24.6 / 335  13.6   61  .30

           9 18  02 36.24  +07 50.9   1.540  2.299    25.2 / 334  13.6   73  .22

          10 18  02 35.51  +08 13.6   1.524  2.294    25.9 / 333  13.5   85  .15

          11 18  02 34.72  +08 36.7   1.508  2.288    26.5 / 332  13.5   97  .08

          12 18  02 33.89  +09 00.2   1.493  2.283    27.2 / 331  13.5  110  .04

          13 18  02 33.01  +09 24.1   1.478  2.278    27.9 / 330  13.4  122  .01

          14 18  02 32.08  +09 48.3   1.463  2.273    28.6 / 329  13.4  135  .00

          15 18  02 31.09  +10 12.9   1.448  2.268    29.3 / 329  13.4  148  .02

          16 18  02 30.05  +10 37.9   1.434  2.262    30.0 / 328  13.3  162  .05

          17 18  02 28.96  +11 03.2   1.420  2.257    30.8 / 327  13.3  174  .11

          18 18  02 27.82  +11 28.9   1.406  2.252    31.5 / 326  13.3  169  .19

          19 18  02 26.61  +11 55.0   1.392  2.247    32.3 / 325  13.2  156  .29

          20 18  02 25.36  +12 21.5   1.379  2.243    33.0 / 324  13.2  142  .40

          21 18  02 24.04  +12 48.3   1.366  2.238    33.8 / 324  13.2  127  .51

          22 18  02 22.67  +13 15.5   1.353  2.233    34.6 / 323  13.1  113  .62

          23 18  02 21.24  +13 43.0   1.341  2.228    35.3 / 322  13.1   99  .73

          24 18  02 19.75  +14 10.9   1.329  2.223    36.1 / 321  13.1   85  .83

          25 18  02 18.20  +14 39.1   1.317  2.219    36.9 / 321  13.1   70  .90

          26 18  02 16.59  +15 07.7   1.306  2.214    37.6 / 320  13.0   56  .96

          27 18  02 14.93  +15 36.6   1.295  2.210    38.4 / 320  13.0   42  .99

          28 18  02 13.20  +16 05.7   1.284  2.205    39.1 / 319  13.0   29 1.00

          29 18  02 11.41  +16 35.2   1.273  2.201    39.8 / 318  13.0   15  .98

          30 18  02 09.56  +17 04.9   1.263  2.196    40.6 / 318  12.9    4  .95

     Oct.  1 18  02 07.65  +17 34.8   1.254  2.192    41.3 / 317  12.9   12  .89

NAKANO

         **** Don't distribute anyone except personal use only ****

                (C) Copyright 2004 OAA/ComputingSection

write mail from CFAD0::NAKANO on 2004-09-01 04:44:05(JST).

 



◎C/2004 Q1の軌道と予報位置です



  ASOのシェロ−ドから8月26日の観測が報告された.彼の CCD全光度は,

明るく12.5等と観測された.

 

    C/2004 Q1 (Tucker)                                                    

T 2004 Dec. 8.28314 TT                                  Nakano

q   2.0319887            (2000.0)            P               Q

                   Peri.   33.96584     +0.65203467     -0.69058501

                   Node    22.08801     +0.36448474     -0.07644211

e   1.0            Incl.   56.33260     +0.66483205     +0.71920021

From 55 observations 2004 Aug. 22-26.



Date/        TT  R.A.(2000) Decl.     Delta   r     Daily motion  Mag.  Moon Age

              h    h  m       。  ,                      ,  / PA 。  m1      。

2004 Aug. 25 18  02 42.17  +02 49.3   1.796  2.382    18.1 / 354  14.0  123  .76

          26 18  02 42.04  +03 07.3   1.777  2.376    18.5 / 352  14.0  109  .85

          27 18  02 41.87  +03 25.6   1.759  2.370    18.8 / 351  14.0   95  .92

          28 18  02 41.67  +03 44.1   1.741  2.364    19.2 / 349  13.9   81  .97

          29 18  02 41.44  +04 03.0   1.723  2.358    19.6 / 348  13.9   67 1.00

          30 18  02 41.17  +04 22.1   1.705  2.352    20.0 / 347  13.9   53  .99

          31 18  02 40.86  +04 41.6   1.688  2.347    20.4 / 345  13.8   40  .96

     Sept. 1 18  02 40.51  +05 01.3   1.670  2.341    20.9 / 344  13.8   27  .91

